Tracking 19644 objects as of 26-Apr-2019
HD Live streaming from Space Station
objects crossing your sky now

CHINASAT 5A (CHINASTAR1)

Track CHINASAT 5A (CHINASTAR1) now!
CHINASAT 5A (CHINASTAR1) is classified as:


NORAD ID: 25354
Int'l Code: 1998-033A
Perigee: 36,138.2 km
Apogee: 36,173.7 km
Inclination: 2.7 °
Period: 1,454.6 minutes
Semi major axis: 42526 km
RCS: 0.003 m2 (small)
Launch date: May 30, 1998
Source: People's Republic of China (PRC)
Launch site: Xichang Space Center, China (XSC)

24 C-band, 24 Ku-band; voice and video communications throughout China and neighboring countries.
aabbcc
Your satellite tracking list
Your tracking list is empty




NASA's NSSDC Master Catalog

Two Line Element Set (TLE):
1 25354U 98033A   19115.78147934 -.00000180  00000-0  00000+0 0  9991
2 25354   2.7100  83.4313 0004175 295.4713 230.1567  0.98993594 81033
Source of the keplerian elements: AFSPC